DateTimeUTC,F1_A11,F1_S11,BsB_S11,BsG_S11,BsR_S11,BbsB_S11,BbsG_S11,BbsR_S11,BaB_A11,BaG_A11,BaR_A11,Tu_S11,T_S11,Uu_S11,U_S11,P_S11,T1_A11
2021-05-20T05:00:00Z,00000200,21000000,,,,,,,-000.05,0000.01,0000.21,16.2,23.6,,00.0,0673.0,30.9
2021-05-20T05:01:00Z,00000200,21000000,,,,,,,0000.06,0000.13,-000.18,16.2,23.6,,00.0,0673.0,30.9
2021-05-20T05:02:00Z,00000200,21000000,,,,,,,0000.02,-000.19,0000.29,16.1,23.6,,00.0,0673.0,30.9
2021-05-20T05:03:00Z,00000200,61000000,,,,,,,0000.57,0000.58,0000.06,16.1,23.6,,00.0,0673.0,30.9
2021-05-20T05:04:00Z,00000200,41000000,0003.10,0002.40,0001.54,0000.16,0000.54,0000.22,0000.83,0000.74,0000.71,16.3,23.4,,00.0,0673.9,30.9
2021-05-20T05:05:00Z,00000200,01000000,0003.80,0002.28,0001.18,0000.94,0000.54,0000.31,0000.94,0000.71,0000.56,16.4,23.4,,00.0,0673.9,30.9
2021-05-20T05:06:00Z,00000200,01000000,0003.35,0002.15,0001.24,0000.55,0000.62,0000.36,0000.64,0000.51,0000.54,16.4,23.4,,00.0,0673.9,30.9
2021-05-20T05:07:00Z,00000200,01000000,0003.47,0002.51,0001.46,0000.82,0000.52,0000.28,0000.94,0000.95,0000.62,16.4,23.3,,00.0,0673.9,30.9
2021-05-20T05:08:00Z,00000200,01000000,0002.80,0002.40,0001.28,0000.50,0000.58,0000.25,0000.91,0001.12,0000.58,16.4,23.3,,00.0,0673.9,30.9
2021-05-20T05:09:00Z,00000200,01000000,0003.20,0002.35,0001.28,0000.29,0000.58,0000.46,0000.87,0000.68,0000.83,16.3,23.3,,00.0,0674.0,30.9
2021-05-20T05:10:00Z,00000200,01000000,0003.10,0002.41,0001.12,0001.11,0000.47,0000.21,0000.77,0000.74,0000.64,16.3,23.3,,00.0,0673.9,30.9
2021-05-20T05:11:00Z,00000200,01000000,0003.29,0002.53,0001.41,0000.13,0000.35,0000.32,0000.94,0000.74,0000.28,16.3,23.2,,00.0,0673.9,30.9
2021-05-20T05:12:00Z,00000200,01000000,0003.03,0002.29,0001.42,0000.85,0000.35,0000.25,0000.48,0000.45,0000.50,16.3,23.2,,00.0,0673.9,30.9
2021-05-20T05:13:00Z,00000200,01000000,0003.01,0002.44,0001.24,0000.77,0000.59,0000.39,0001.04,0000.53,0000.29,16.3,23.2,,00.0,0673.9,30.9
2021-05-20T05:14:00Z,00000200,01000000,0003.48,0002.09,0001.34,0000.27,0000.42,0000.12,0000.52,0000.97,0000.68,16.2,23.2,,00.0,0673.9,30.8
2021-05-20T05:15:00Z,00000200,01000000,0002.72,0002.33,0001.39,0000.17,0000.43,0000.33,0001.25,0000.70,0000.60,16.2,23.2,00.0,00.0,0673.9,30.8
2021-05-20T05:16:00Z,00000200,01000000,0003.41,0002.28,0001.29,0000.78,0000.37,0000.01,0001.13,0001.48,0000.74,16.2,23.2,,00.0,0673.8,30.8
2021-05-20T05:17:00Z,00000200,01000000,0004.02,0002.27,0001.32,0000.46,0000.55,0000.18,0001.15,0000.59,0000.79,16.3,23.2,,00.0,0673.9,30.8
2021-05-20T05:18:00Z,00000200,01000000,0003.77,0002.18,0001.11,0000.49,0000.45,0000.26,0000.63,0000.61,0000.57,16.3,23.2,,00.0,0673.9,30.8
2021-05-20T05:19:00Z,00000200,01000000,0003.31,0002.18,0001.30,-000.01,0000.41,0000.09,0001.28,0001.19,0000.66,16.4,23.2,,00.0,0673.9,30.9
2021-05-20T05:20:00Z,00000200,01000000,0002.95,0002.30,0001.10,0000.31,0000.54,0000.39,0000.49,0000.39,0000.05,16.5,23.3,,00.0,0673.9,30.9
2021-05-20T05:21:00Z,00000200,01000000,0002.84,0002.01,0001.00,0000.40,0000.43,0000.00,0000.94,0000.76,0001.05,16.5,23.3,,00.0,0673.9,30.9
2021-05-20T05:22:00Z,00000200,01000000,0003.78,0002.32,0001.09,0000.62,0000.54,0000.24,0000.88,0000.65,0000.32,16.6,23.4,,00.0,0673.8,30.9
2021-05-20T05:23:00Z,00000200,01000000,0002.96,0002.02,0001.43,0000.60,0000.64,0000.13,0000.86,0000.89,0000.81,16.7,23.4,,00.0,0673.8,30.9
2021-05-20T05:24:00Z,00000200,01000000,0003.43,0002.42,0000.99,0000.98,0000.29,0000.11,0000.56,0001.07,0000.69,16.7,23.5,,00.0,0673.8,30.9
2021-05-20T05:25:00Z,00000200,01000000,0003.47,0002.02,0001.26,0000.47,0000.50,0000.28,0001.27,0000.67,0000.31,16.8,23.5,,00.0,0673.9,30.9
2021-05-20T05:26:00Z,00000200,01000000,0003.10,0002.08,0001.00,0000.72,0000.48,0000.14,0000.39,0000.69,0000.30,16.9,23.6,,00.0,0673.9,30.9
2021-05-20T05:27:00Z,00000200,01010000,0003.68,0002.09,0001.26,0000.29,0000.33,0000.43,0001.25,0000.64,0000.94,17.0,23.6,,00.0,0673.9,30.9
2021-05-20T05:28:00Z,00000200,01000000,0002.98,0002.37,0001.23,0000.56,0000.23,0000.31,0000.84,0001.07,0000.41,17.0,23.6,,00.0,0673.9,31.0
2021-05-20T05:29:00Z,00000200,01000000,0003.28,0002.22,0001.43,0000.76,0000.48,0000.27,0000.77,0000.78,0000.58,17.1,23.7,,00.0,0673.8,31.0
2021-05-20T05:30:00Z,00000200,01000000,0003.65,0002.09,0001.15,0000.23,0000.32,0000.10,0000.70,0000.44,0000.78,17.2,23.7,,00.0,0673.9,31.0
2021-05-20T05:31:00Z,00000200,01000000,0003.37,0002.47,0001.13,0000.85,0000.42,-000.02,0000.67,0000.54,0000.30,17.2,23.8,,00.0,0673.9,31.0
2021-05-20T05:32:00Z,00000200,01000000,0002.95,0002.05,0001.25,0001.01,0000.31,0000.22,0000.62,0000.81,0000.30,17.3,23.8,,00.0,0673.9,31.0
2021-05-20T05:33:00Z,00000200,01000000,0002.71,0002.18,0001.27,0000.21,0000.70,0000.18,0000.90,0000.66,0000.51,17.3,23.8,,00.0,0673.9,31.0
2021-05-20T05:34:00Z,00000200,01000000,0003.07,0002.26,0001.07,0000.45,0000.22,0000.13,0000.42,0000.33,0000.56,17.3,23.8,,00.0,0673.9,31.0
2021-05-20T05:35:00Z,00000200,01000000,0002.82,0001.93,0001.16,0000.83,0000.51,0000.17,0000.97,0000.83,0000.29,17.2,23.8,,00.0,0674.0,31.0
2021-05-20T05:36:00Z,00000200,01000000,0003.77,0002.10,0001.52,0000.23,0000.14,0000.08,0000.68,0000.57,0000.39,17.2,23.8,,00.0,0673.9,30.9
2021-05-20T05:37:00Z,00000200,01000000,0004.08,0002.35,0001.18,0000.32,0000.59,0000.35,0000.69,0000.84,0000.53,17.1,23.8,,00.0,0673.9,30.9
2021-05-20T05:38:00Z,00000200,01000000,0003.34,0002.28,0001.37,-000.01,0000.20,0000.21,0000.84,0000.41,0000.43,17.1,23.8,,00.0,0673.9,30.9
2021-05-20T05:39:00Z,00000200,01000000,0003.21,0002.20,0001.24,0000.84,0000.40,0000.15,0000.61,0000.70,0000.46,17.1,23.8,,00.0,0673.9,30.9
2021-05-20T05:40:00Z,00000200,01000000,0003.02,0002.22,0001.47,0000.79,0000.62,0000.51,0000.77,0000.58,0000.73,17.1,23.8,,00.0,0673.8,30.9
2021-05-20T05:41:00Z,00000200,01000000,0002.84,0002.54,0001.04,0000.41,0000.57,0000.39,0001.26,0001.12,0000.43,17.1,23.7,,00.0,0673.8,31.0
2021-05-20T05:42:00Z,00000200,01000000,0003.75,0002.65,0001.19,0000.38,0000.49,0000.16,0000.31,0000.36,-000.01,17.1,23.8,,00.0,0673.8,30.9
2021-05-20T05:43:00Z,00000200,01000000,0003.56,0002.42,0001.01,0000.49,0000.80,0000.10,0001.16,0000.96,0000.93,17.0,23.7,,00.0,0673.8,30.9
2021-05-20T05:44:00Z,00000200,01000000,0002.95,0002.04,0001.20,-000.45,0000.68,0000.19,0000.63,0000.46,0000.28,17.0,23.7,,00.0,0673.8,30.9
2021-05-20T05:45:00Z,00000200,01000000,0003.29,0002.20,0001.18,0000.26,0000.65,-000.03,0000.81,0000.85,0000.46,17.0,23.7,,00.0,0673.8,30.9
2021-05-20T05:46:00Z,00000200,01000000,0003.27,0002.33,0001.29,0000.48,0000.55,0000.17,0001.30,0000.79,0000.75,17.0,23.7,,00.0,0673.8,30.9
2021-05-20T05:47:00Z,00000200,01000000,0002.89,0002.38,0001.21,0000.47,0000.43,0000.01,0000.98,0001.10,0001.07,16.9,23.7,,00.0,0673.7,30.9
2021-05-20T05:48:00Z,00000200,01000000,0003.13,0002.31,0001.27,0000.59,0000.67,0000.18,0000.71,0000.89,0000.65,16.9,23.7,,00.0,0673.7,30.9
2021-05-20T05:49:00Z,00000200,01000000,0003.00,0002.20,0001.18,0000.51,0000.40,0000.19,0001.28,0000.60,0000.60,16.9,23.7,,00.0,0673.7,30.9
2021-05-20T05:50:00Z,00000200,01000000,0003.77,0002.24,0001.17,0000.10,0000.50,0000.36,0000.61,0000.82,0000.64,17.0,23.7,,00.0,0673.7,30.9
2021-05-20T05:51:00Z,00000200,01000000,0003.06,0002.09,0000.99,-000.16,0000.29,0000.14,0001.10,0000.97,0000.51,17.0,23.7,,00.0,0673.7,30.9
2021-05-20T05:52:00Z,00000200,01000000,0002.94,0002.19,0001.12,0000.51,0000.55,0000.13,0000.80,0000.79,0001.03,17.1,23.8,,00.0,0673.7,30.9
2021-05-20T05:53:00Z,00000200,01000000,0003.22,0002.49,0001.51,0000.31,0000.58,0000.32,0000.76,0000.95,0000.16,17.1,23.8,,00.0,0673.7,30.9
2021-05-20T05:54:00Z,00000200,01000000,0003.30,0002.36,0001.13,0000.57,0000.56,0000.20,0000.88,0000.78,0001.15,17.2,23.9,,00.0,0673.7,30.9
2021-05-20T05:55:00Z,00000200,01000000,0002.96,0002.15,0000.89,0000.56,0000.52,0000.16,0000.58,0000.45,-000.03,17.3,23.9,,00.0,0673.7,31.0
2021-05-20T05:56:00Z,00000200,01000000,0003.42,0002.23,0000.89,0000.30,0000.38,-000.20,0000.68,0000.88,0000.62,17.3,23.9,,00.0,0673.7,31.0
2021-05-20T05:57:00Z,00000200,41000000,,,,,,,0000.71,0000.25,0000.27,17.4,24.0,,00.0,0673.7,31.0
2021-05-20T05:58:00Z,00000200,61000000,,,,,,,-000.45,-000.32,-000.21,17.1,24.2,,00.0,0672.7,31.0
2021-05-20T05:59:00Z,00000200,21000000,,,,,,,-000.50,-000.47,-000.42,17.1,24.3,,00.0,0672.7,31.0
